This demonstration page uses our WeatherBlox Daily Observations layout. Learn more.

Left ArrowRight Arrow

41.55636, -103.73856

Hourly Observations for March 24, 2021

Temp ( °F °C ) Dew Point ( °F °C ) Humidity (%) Winds ( mph kmh ) Pressure ( in mb ) Visibility ( mi km ) Precip ( " mm )
12:58 am 00:58 Mostly Cloudy 31 -0.6 26 -3.2 83 83 N 17 28 30.09 1019 10 16 0.00 0.00
1:58 am 01:58 Cloudy 30 -1.2 24 -4.3 80 80 NNW 17 28 30.10 1019 10 16 0.00 0.00
2:58 am 02:58 Mostly Cloudy with Light Snow 28 -2.2 23 -5.2 80 80 NNW 17 28 30.11 1020 10 16 0.00 0.00
3:58 am 03:58 Cloudy with Light Snow Showers 28 -2.5 24 -4.5 86 86 NNW 16 26 30.10 1019 10 16 0.00 0.00
4:58 am 04:58 Mostly Cloudy with Light Snow 26 -3.4 23 -4.8 90 90 NNW 17 28 30.09 1019 10 16 0.00 0.00
5:58 am 05:58 Cloudy 25 -3.7 22 -5.4 88 88 NNW 17 28 30.10 1019 10 16 0.00 0.00
6:58 am 06:58 Mostly Cloudy 22 -5.3 20 -6.8 89 89 NNW 14 22 30.10 1019 10 16 0.00 0.00
7:58 am 07:58 Cloudy 22 -5.3 20 -6.6 91 91 WNW 9 15 30.12 1020 10 16 0.00 0.00
8:58 am 08:58 Mostly Cloudy 23 -4.9 20 -6.7 87 87 WNW 12 19 30.12 1020 10 16 0.00 0.00
9:58 am 09:58 Sunny 25 -4 21 -6.2 85 85 WNW 8 13 30.11 1020 10 16 0.00 0.00
10:58 am 10:58 Sunny 26 -3.3 20 -6.5 79 79 W 7 11 30.09 1019 10 16 0.01 0.25
11:58 am 11:58 Sunny 28 -2.5 21 -6.3 75 75 WNW 5 7 30.03 1017 10 16 0.00 0.00
12:58 pm 12:58 Sunny 29 -1.4 19 -7.4 64 64 Calm 30.00 1016 10 16 0.00 0.00
1:58 pm 13:58 Sunny 31 -0.6 21 -6.1 67 67 SSW 7 11 29.98 1015 10 16 0.00 0.00
2:58 pm 14:58 Sunny 32 -0.2 22 -5.6 67 67 SSW 9 15 29.95 1014 10 16 0.00 0.00
3:58 pm 15:58 Sunny 33 0.5 24 -4.3 71 71 SSW 9 15 29.93 1013 10 16 0.00 0.00
4:58 pm 16:58 Sunny 34 0.9 25 -4.1 70 70 S 8 13 29.90 1012 10 16 0.00 0.00
5:58 pm 17:58 Sunny 34 1.2 24 -4.2 68 68 S 9 15 29.86 1011 10 16 0.00 0.00
6:58 pm 18:58 Sunny 32 -0.2 24 -4.4 74 74 S 10 17 29.89 1012 10 16 0.00 0.00
7:58 pm 19:58 Clear 29 -1.7 23 -4.9 79 79 S 12 19 29.90 1013 10 16 0.00 0.00
8:58 pm 20:58 Clear 28 -2.2 23 -5.2 80 80 SW 13 20 29.89 1012 10 16 0.00 0.00
9:58 pm 21:58 Clear 28 -2 22 -5.7 76 76 SSW 15 24 29.89 1012 10 16 0.00 0.00
10:58 pm 22:58 Clear 28 -2.4 22 -5.6 79 79 SSW 16 26 29.86 1011 10 16 0.00 0.00
11:58 pm 23:58 Mostly Clear 25 -3.9 20 -6.7 81 81 SSW 14 22 29.84 1011 10 16 0.00 0.00

Powered by AerisWeather